Weather in Pyatidorozhnoye

Russia / Kaliningrad Oblast     54°30′09″N   20°05′46″E
temp.,
°C
wind,
m/s
gust,
m/s
humid.,
%
clouds,
%
prec.,
mm/h
press.,
hPa
HPBL,
m
15 april, thu
thu1523:00+4n71085100 0.0 1023611
02:00+4nne71283100 0.1 1023630
05:00+3nne91597100 0.7 1022638
08:00+2nne91497100 1.5 1022565
11:00+4nne91485100 0.6 1022704
14:00+6nne81376100 0.6 1021682
17:00+6nne6107882 0.0 1021321
20:00+6nne71277100 0.0 1021251
16 april, fri
fri1623:00+5nne71370100 0.0 1021329
02:00+4ne61175100 0.0 1020376
05:00+4nne71087100 0.2 1020563
08:00+4nne71090100 0.9 1020433
11:00+4nne6990100 0.5 1020432
14:00+5nne5791100 1.1 1020371
17:00+5nne4796100 0.9 1020296
20:00+5ne4696100 1.0 1021198
17 april, sat
sat1723:00+6nne4595100 0.1 1021115
02:00+6nne4896100 0.3 1020168
05:00+6nne4796100 0.1 1020164
08:00+7ne589699 0.3 1020257
11:00+10ene578461 0.0 1021505
14:00+10ene6784100 0.6 1021524
17:00+10e468685 0.1 1021327
20:00+8ene338796 0.1 102216
18 april, sun
sun1823:00+7ene4897100 0.3 1022145
02:00+7ene4895100 0.9 1022155
05:00+7ene4897100 0.3 1021160
08:00+8e3594100 0.6 1021156
11:00+8ese3497100 2.3 1021185
14:00+10ese347996 2.8 1021608
17:00+10se467698 0.4 1021357
20:00+9ese4582100 0.4 102276
19 april, mon
mon1923:00+8ese3580100 0.0 102276
02:00+7e3479100 0.0 102241
05:00+7ene4779100 0.0 1021102
08:00+8ene4885100 0.0 1021169
11:00+11ene4667100 0.0 1020759
14:00+13ene4558100 0.1 10181046
17:00+11ne3574100 0.6 1017184
20:00+9ne4982100 0.7 1016180